Weather in Samarskoe

Russia / Rostov Oblast     46°56′15″N   39°41′15″E
temp.,
°C
wind,
m/s
gust,
m/s
humid.,
%
clouds,
%
prec.,
mm/h
press.,
hPa
HPBL,
m
3 august, tue
tue300:00+27nne11350 0.0 101011
03:00+26nnw22360 0.0 101011
06:00+25nnw114591 0.0 101111
09:00+32ene22310 0.0 1011412
12:00+38wnw12200 0.0 10102620
15:00+38wnw65192 0.0 10092879
18:00+34wnw782730 0.0 1009693
21:00+29wnw594893 0.0 1011350
4 august, wed
wed400:00+25nne475779 0.0 1013363
03:00+24wnw33595 0.0 101357
06:00+23wnw246373 0.0 1014149
09:00+27wnw3352100 0.0 1014734
12:00+32nnw3432100 0.0 10141878
15:00+33nnw442734 0.0 10132751
18:00+32nw553066 0.0 10131128
21:00+26nne4837100 0.0 1015214
5 august, thu
thu500:00+23nne49382 0.0 1015211
03:00+22ne3741100 0.0 1015154
06:00+21ne3646100 0.0 1016133
09:00+28ene44375 0.0 1016673
12:00+32ene432866 0.0 10152224
15:00+34ne33255 0.0 10132982
18:00+34ne442617 0.0 10121939
21:00+28e612375 0.0 1012356
6 august, fri
fri600:00+26e513285 0.0 1011322
03:00+23e4114011 0.2 1011218
06:00+22e513556 0.6 1012243
09:00+31ese7112740 0.6 1011845
12:00+36ese892119 0.0 10092584
15:00+38e892010 0.0 10063218
18:00+37e8922100 0.0 10052268
21:00+32ene816250 0.0 1005472
7 august, sat
sat700:00+30e817300 0.0 1005531
03:00+29e7163088 0.0 1005528
06:00+28ese81637100 0.0 1005575
09:00+31se71031100 0.0 10061154
12:00+32se6730100 0.0 10061229
15:00+32ene3628100 0.0 10051434
18:00+32sw4631100 0.0 1005532
21:00+26nw2345100 0.1 100626